STARLINK-11300, 61243

Orbit data source: Space-Track

STARLINK-11300, 61243 is a payload satellite owned by SpaceX/Seattle (US) in LEO that was launched on Wed, 25 Sep 2024 UTC via an FALCON 9 launch vehicle from the Air Force Western Test Range (AFWTR). Payload-class satellites include a variety of spacecraft equipped with specific instruments for various scientific and technological missions. These include communications satellites like Starlink; space stations such as the ISS; scientific satellites like the Hubble; Earth observation satellites from companies like Planet Labs, Umbra, and HawkEye 360; GPS; miniature CubeSats for education and research; and military/defense satellites.

Loading next visibility...
Identifier
61243, 2024-175A
Orbit
LEO
Country
Flag of USUS
Related business
Manufacturer
SpaceX/Seattle
Mission
Operational Commercial Communications
Bus & Motor
STARLINK V2MD, Unknown motor
Mass
960 kg wet, ~910 kg dry
Launch date (UTC)
2024-09-25 (1 year ago)
Launch vehicle
FALCON 9
Launch site
Air Force Western Test Range (AFWTR)
Object type
Payload
Rocket body
Debris
Shape & HBR
Box + 2 Pan, 14.5 m
Radar Cross Section
36.964 m², Large (>1 m²)

Expand to show TLE details & history
Last TLE update: 11 hours ago

TLE from 11 hours ago
0 STARLINK-11300
1 61243U 24175A   25261.19349977  .00004546  00000-0  42389-4 0  9999
2 61243  53.1598 186.6365 0002206  84.6172 275.5098 15.69696975 56271
Epoch: 2025-09-18T04:38Z
TLE epoch observation values (Epoch: 2025-09-18T04:38:38.38Z)
Latitude
0.00003°
Longitude
119.618°
Altitude
360.537 km
Speed
7.694 km/s
True Right ascension
12h 26m 32s
True Declination
0° 00' 00"
Sunlit
Object was in daylight at epoch
Visualization orbit readout
Latitude
Unknown
Longitude
Unknown
Altitude
Unknown
Speed
Unknown
Apparent Right ascension
Unknown
Apparent Declination
Unknown
Sunlit
N/A
Visualization observer readout
Local Sidereal Time
08:06:55
Azimuth
Unknown
Elevation
Unknown
Doppler factor
Unknown
Orbital elements
Apogee altitude
361.511 km
Perigee altitude
358.538 km
Semi-major axis
6,738.162 km
Eccentricity
0.00022
Inclination
53.1598°
RAAN
186.6365°
Arg. of periapsis
84.6172°
True anomaly
275.48464°
Mean anomaly
275.5098°
Eccentric anomaly
275.49722°
Mean motion
3.92402 °/min
Orbital period
91.74 mins
BSTAR
0.000042389
Loading maneuver chart data...
Computing Atmospheric mass density...
Loading historical data...
Loading historical data...
Loading historical data...
Loading historical data...
Loading historical data...
Loading historical data...
Loading historical data...

Documentation

Showing up to 5 results
|